Location: Black Swamp Observatory
(41.3920°N, 84.1250°W)
Time: 01:27:59
(UTC-04:00)

Vanguard 3 - Visible Passes

Search period start: 10 August 2022 00:00
Search period end: 20 August 2022 00:00
Orbit: 508 x 3258 km, 33.3° (Epoch: 09 August)

Date Brightness Start Highest point End Pass type
(mag) Time Alt. Az. Time Alt. Az. Time Alt. Az.
10 Aug 7.9 06:04:18 10° WSW 06:06:47 17° SSW 06:09:21 10° SSE visible
11 Aug 7.8 04:53:47 21° SSE 04:53:47 21° SSE 04:55:47 10° SE visible
12 Aug 8.0 05:48:09 13° SW 05:49:23 15° SSW 05:51:30 10° SSE visible
13 Aug 8.6 04:38:02 12° SE 04:38:02 12° SE 04:38:26 10° SE visible
13 Aug 10.0 22:50:28 10° SSW 22:54:41 17° S 22:54:41 17° S visible
14 Aug 8.2 05:32:32 12° SSW 05:32:32 12° SSW 05:33:39 10° S visible
14 Aug 9.9 21:36:22 10° S 21:42:26 14° SSE 21:45:07 13° SE visible
14 Aug 10.0 23:46:21 10° SW 23:49:42 18° SSW 23:49:42 18° SSW visible
15 Aug 9.5 22:30:26 10° SSW 22:40:04 25° SSE 22:40:04 25° SSE visible
16 Aug 10.3 00:43:39 10° WSW 00:44:39 13° SW 00:44:39 13° SW visible
16 Aug 9.8 21:15:21 10° S 21:24:30 19° SSE 21:30:22 12° ESE visible
16 Aug 9.4 23:27:00 10° SW 23:34:55 31° SSW 23:34:55 31° SSW visible
17 Aug 9.2 22:10:33 10° SSW 22:22:14 30° SSE 22:25:05 27° SE visible
18 Aug 9.7 00:24:42 10° WSW 00:29:39 25° SW 00:29:39 25° SW visible
18 Aug 10.0 20:54:52 10° SSW 21:06:28 24° SSE 21:14:42 10° ESE visible
18 Aug 8.9 23:07:38 10° SW 23:19:42 41° S 23:19:42 41° S visible
19 Aug 10.3 01:22:58 10° WSW 01:24:15 14° WSW 01:24:15 14° WSW visible
19 Aug 9.4 21:50:46 10° SW 22:04:15 36° SSE 22:09:38 23° ESE visible
